Find Starlink 32864

NORAD ID: 62862 Int'l Des: 2025-022 Owner: SPXS Country: US Constellation: starlink operational
LEOCIRCULAR

实时位置

正在加载3D地球...

关于 Starlink 32864

正在加载描述...

即将过境

Passes for default location (London). Set your location on the main map for personalized predictions.

高度历史

Loading altitude history...

两行轨道根数

1 62862U 25022J 26125.66067786 .00020190 00000-0 69186-3 0 9992
2 62862 53.1598 224.9084 0001112 64.3478 295.7637 15.30203398 70621
Epoch: May 5, 2026 • Age: 14 hours

当前状态

高度 479.5 km
速度 7.63 km/s
星下点 47.06°N, 42.56°W
发射日期 Feb 2, 2025
运行时间 1.2 years
类型 internet

技术详情

分类 Payload
质量 730.00 kg
干质量 700.00 kg
总质量 730.00 kg
长度 0.30 m
直径 4.10 m
跨度 29.00 m
形状 Box + pan
制造商 SPXS
平台类型 Starlink V2M
阶段状态 In Orbit
所有者/国家 SPXS/US

Most Searched